[[{"header":{"parameterUnit":"m.s-1","parameterCategory":1,"la1":30.2991,"la2":30.254,"lo1":-89.0895,"lo2":-89.0444,"dy":0.0017,"dx":0.0017,"nx":28,"ny":28,"refTime":"2023-10-21T03:00:00:Z","depth":0,"parameterNumber":2,"parameterNumberName":"U-component_of_WINDS"},"data":[0,0,0,0,0,0,0,0,0,0,0,0,0,0,0,0,0,0,0,0,0,0,0,0,0,0,0,0,0,0,0,0,0,0,0,0,0,0,0,0,0,0,0,0,0,0,0,0,0,0,0,0,0,0,0,0,0,0,0.0681,0.0682,0,0.0805,0.0806,0.0807,0.0859,0.0859,0.0859,0.0859,0.0988,0.0992,0.0995,0,0,0,0,0,0,0,0,0,0,0,0,0,0.0491,0.0494,0.0681,0.0682,0.0684,0.0804,0.0806,0.0808,0.0859,0.0859,0.0859,0.0858,0.0987,0.0991,0.0996,0,0,0,0,0,0,0,0,0,0,0,0,0,0.059,0.0495,0.0681,0.0724,0.0729,0.0804,0.0806,0.0808,0.0859,0.0859,0.0859,0.0858,0.0985,0.0991,0.0996,0.1038,0,0,0.1013,0.1016,0,0,0,0,0,0,0,0,0.0584,0.0597,0.0716,0.0721,0.0727,0.0816,0.0787,0.0885,0.0859,0.081,0.0859,0.0858,0.0931,0.0941,0.0965,0.1044,0.105,0.1014,0.1017,0.1019,0.1021,0,0,0,0,0,0,0,0.0577,0.0592,0.073,0.0718,0.0725,0.0738,0.0752,0.0806,0.0871,0.0814,0.0818,0.0832,0.0934,0.096,0.0969,0.1051,0.1014,0.1018,0.1022,0.1024,0.117,0.1171,0,0,0,0,0,0,0.0563,0.0586,0.0726,0.0734,0.0653,0.0742,0.0757,0.0788,0.0871,0.0883,0.0832,0.0834,0.0951,0.0962,0.0974,0.1028,0.1019,0.1025,0.1028,0.1169,0.117,0.1171,0,0,0,0,0,0,0.0559,0.0575,0.0721,0.0661,0.068,0.0745,0.078,0.0791,0.0816,0.0885,0.0897,0.0846,0.0951,0.0966,0.1021,0.1033,0.1027,0.1032,0.1169,0.117,0.117,0.1136,0,0,0,0,0,0,0.0553,0.0573,0.0589,0.0661,0.0683,0.0766,0.078,0.0793,0.0825,0.0829,0.0901,0.0913,0.0952,0.1013,0.1027,0.104,0.1036,0.1168,0.1169,0.117,0.1136,0.1135,0.1134,0,0,0,0,0,0.0546,0.0575,0.059,0.0606,0.0705,0.0766,0.0779,0.0823,0.0826,0.0843,0.0887,0.091,0.1029,0.1018,0.1034,0.105,0.1168,0.1169,0.117,0.1136,0.1135,0.1134,0,0,0,0,0,0,0.0505,0.0586,0.0603,0.0656,0.0703,0.0775,0.0798,0.0821,0.0869,0.0871,0.0924,0.094,0.099,0.1026,0.1012,0.1094,0.11,0.1105,0.1069,0.1069,0.1068,0.1058,0.1041,0,0,0,0,0,0.0501,0.0544,0.0613,0.0653,0.0676,0.0732,0.0761,0.079,0.0842,0.0863,0.0911,0.0962,0.101,0.1042,0.109,0.1141,0.1158,0.116,0.1159,0.1158,0.1161,0.1191,0.1192,0.1175,0.1175,0.1175,0,0,0.0496,0.0545,0.0569,0.0646,0.0686,0.0729,0.0749,0.0794,0.0827,0.0871,0.0925,0.0962,0.1022,0.1075,0.1101,0.1106,0.117,0.116,0.1158,0.1162,0.1192,0.1194,0.1195,0.1176,0.1176,0.1175,0,0,0.0507,0.0549,0.0586,0.0626,0.0687,0.0724,0.0733,0.0801,0.0827,0.0882,0.0916,0.0956,0.1039,0.108,0.1112,0.1137,0.1161,0.1152,0.1148,0.1176,0.1177,0.1179,0.1188,0.1191,0.1155,0.1155,0.1155,0,0.0492,0.0558,0.0603,0.0646,0.0679,0.0719,0.0758,0.0795,0.0868,0.089,0.0895,0.0999,0.1042,0.1105,0.1111,0.1136,0.1148,0.1144,0.1173,0.1175,0.1177,0.1187,0.119,0.1154,0.1154,0.1154,0.1154,0,0.0537,0.0582,0.0606,0.0675,0.071,0.0751,0.0802,0.0833,0.0859,0.0896,0.0952,0.1005,0.1064,0.1082,0.1108,0.1148,0.115,0.1163,0.117,0.1177,0.1186,0.119,0.1151,0.1152,0.1152,0.1153,0,0,0.0527,0.0619,0.0627,0.0658,0.0728,0.0764,0.0807,0.0864,0.0889,0.0939,0.0976,0.1044,0.1057,0.1093,0.1124,0.1149,0.1165,0.1159,0.1161,0.1158,0.1213,0.1203,0.1206,0.1181,0.1182,0.1183,0.1208,0,0.0547,0.0624,0.0666,0.0725,0.0768,0.0806,0.0843,0.089,0.0925,0.0967,0.1006,0.1054,0.1067,0.1089,0.1114,0.1158,0.1177,0.1156,0.1217,0.1218,0.1201,0.1211,0.1201,0.1222,0.1212,0.1213,0.1213,0,0.0582,0.063,0.0693,0.0758,0.0777,0.0809,0.0865,0.0904,0.0958,0.0982,0.1021,0.1052,0.1099,0.1102,0.1167,0.1152,0.1179,0.1204,0.1206,0.1214,0.1216,0.1219,0.123,0.1233,0.122,0.1219,0.1219,0,0.0568,0.0648,0.0696,0.0722,0.0798,0.082,0.0853,0.0907,0.0938,0.0987,0.1008,0.1062,0.1092,0.1133,0.1178,0.1176,0.1238,0.1246,0.126,0.1259,0.1272,0.1271,0.1287,0.1289,0.1289,0.1289,0.1289,0,0.0587,0.0624,0.0691,0.0721,0.0764,0.0811,0.0852,0.0888,0.0935,0.0973,0.101,0.1045,0.1101,0.1143,0.1178,0.1227,0.124,0.1261,0.127,0.1258,0.1255,0.1277,0.1277,0.129,0.129,0.1289,0.1289,0,0.0578,0.0624,0.068,0.0747,0.0764,0.0793,0.0851,0.0881,0.0918,0.0965,0.0979,0.1037,0.1089,0.1137,0.1206,0.1229,0.1278,0.129,0.126,0.1265,0.1276,0.1275,0.1308,0.1315,0.1311,0.1311,0.1311,0,0.0588,0.0617,0.0687,0.0714,0.0746,0.079,0.0822,0.087,0.0902,0.0965,0.0988,0.1041,0.1087,0.1167,0.1216,0.1268,0.1282,0.129,0.129,0.1277,0.1282,0.128,0.1283,0.1289,0.1289,0.1289,0.1288,0,0.0599,0.062,0.0664,0.0717,0.0754,0.0798,0.0843,0.0863,0.0919,0.0953,0.1006,0.1041,0.111,0.1163,0.1221,0.1256,0.1282,0.1288,0.1294,0.1282,0.1263,0.1274,0.1257,0.1287,0.1287,0.1287,0.1287,0.1287,0.06,0.0628,0.0681,0.0729,0.0768,0.0809,0.084,0.0881,0.0925,0.0984,0.101,0.1062,0.1116,0.1196,0.123,0.1273,0.1279,0.1288,0.129,0.1292,0.1289,0.1256,0.1284,0.1284,0.1284,0.1284,0.1284,0,0.0613,0.0649,0.0693,0.0754,0.0792,0.0812,0.0862,0.0893,0.0939,0.0985,0.1029,0.1089,0.114,0.1192,0.1247,0.127,0.1284,0.1283,0.1282,0.129,0.1281,0.127,0.1272,0.1272,0.1272,0.1272,0.1272,0.1271,0.0624,0.0672,0.07,0.0767,0.0803,0.0854,0.0882,0.092,0.0957,0.1022,0.1064,0.1098,0.1147,0.1205,0.1253,0.1267,0.1285,0.1282,0.1299,0.129,0.129,0.1291,0.1281,0.1285,0.1285,0.1305,0.1305,0.1305]},{"header":{"parameterUnit":"m.s-1","parameterCategory":1,"la1":30.2991,"la2":30.254,"lo1":-89.0895,"lo2":-89.0444,"dy":0.0017,"dx":0.0017,"nx":28,"ny":28,"refTime":"2023-10-21T03:00:00:Z","depth":0,"parameterNumber":3,"parameterNumberName":"V-component_of_WINDS"},"data":[0,0,0,0,0,0,0,0,0,0,0,0,0,0,0,0,0,0,0,0,0,0,0,0,0,0,0,0,0,0,0,0,0,0,0,0,0,0,0,0,0,0,0,0,0,0,0,0,0,0,0,0,0,0,0,0,0,0,2.7746,2.7745,0,2.7731,2.7731,2.7731,2.7737,2.7738,2.7738,2.7739,2.7719,2.7718,2.7718,0,0,0,0,0,0,0,0,0,0,0,0,0,2.7774,2.7774,2.7746,2.7745,2.7745,2.7732,2.7731,2.7731,2.7737,2.7738,2.7738,2.7739,2.772,2.7719,2.7718,0,0,0,0,0,0,0,0,0,0,0,0,0,2.7761,2.7774,2.7746,2.7747,2.7747,2.7732,2.7731,2.7731,2.7737,2.7738,2.7738,2.7739,2.772,2.7719,2.7717,2.7699,0,0,2.7713,2.7713,0,0,0,0,0,0,0,0,2.7762,2.776,2.7747,2.7747,2.7747,2.7737,2.7734,2.772,2.7737,2.7741,2.7739,2.7739,2.7724,2.7723,2.7719,2.7698,2.7697,2.7713,2.7713,2.7712,2.7712,0,0,0,0,0,0,0,2.7763,2.7761,2.774,2.7747,2.7747,2.7747,2.7746,2.7732,2.7729,2.774,2.7741,2.7739,2.7724,2.772,2.7718,2.7697,2.7713,2.7712,2.7711,2.7711,2.766,2.7659,0,0,0,0,0,0,2.7764,2.7761,2.774,2.7739,2.7756,2.7746,2.7745,2.7739,2.773,2.7729,2.7739,2.774,2.7722,2.772,2.7718,2.7695,2.7712,2.7711,2.771,2.766,2.7659,2.7659,0,0,0,0,0,0,2.7765,2.7762,2.7741,2.7751,2.7748,2.7745,2.7739,2.7739,2.7734,2.7729,2.7728,2.7735,2.7722,2.7719,2.7704,2.7695,2.771,2.7709,2.7661,2.766,2.7659,2.765,0,0,0,0,0,0,2.7766,2.7762,2.7756,2.775,2.7747,2.7728,2.7739,2.7738,2.7733,2.7734,2.7725,2.7724,2.7722,2.7706,2.7702,2.7693,2.7708,2.7662,2.766,2.7659,2.7651,2.7649,2.7647,0,0,0,0,0,2.7767,2.7753,2.7756,2.7753,2.774,2.7728,2.7726,2.7726,2.7732,2.7725,2.7722,2.7724,2.7696,2.7704,2.77,2.7691,2.7662,2.7661,2.7659,2.7652,2.7649,2.7647,0,0,0,0,0,0,2.7756,2.7752,2.7755,2.774,2.7734,2.7729,2.772,2.7723,2.7714,2.7715,2.7715,2.7712,2.7696,2.7692,2.77,2.7672,2.768,2.7678,2.7676,2.7673,2.7671,2.7672,2.7707,0,0,0,0,0,2.7752,2.7744,2.7741,2.7727,2.7725,2.7723,2.7718,2.7719,2.7712,2.7709,2.7704,2.7697,2.7687,2.7679,2.767,2.7651,2.7649,2.7642,2.764,2.7639,2.7637,2.7626,2.7623,2.7654,2.7654,2.7654,0,0,2.7743,2.774,2.7735,2.7725,2.7721,2.7712,2.7721,2.771,2.7703,2.7707,2.7693,2.7689,2.768,2.7663,2.7655,2.7659,2.7628,2.7637,2.7636,2.7634,2.7625,2.7622,2.7619,2.7653,2.7654,2.7654,0,0,2.7723,2.772,2.7709,2.7705,2.7699,2.7698,2.7696,2.769,2.7688,2.7674,2.7677,2.7668,2.765,2.7644,2.7638,2.7617,2.7619,2.7613,2.7602,2.7593,2.759,2.7588,2.758,2.7577,2.7611,2.7611,2.7611,0,2.7712,2.77,2.7702,2.7692,2.7687,2.7693,2.7681,2.7676,2.7667,2.7663,2.7668,2.7646,2.764,2.7622,2.7617,2.7612,2.7609,2.7614,2.7591,2.7588,2.7586,2.7579,2.7576,2.7611,2.7611,2.7611,2.7611,0,2.7687,2.7678,2.767,2.7663,2.7657,2.7646,2.7645,2.7639,2.7641,2.7639,2.7624,2.7618,2.7607,2.7603,2.7603,2.7584,2.7587,2.7591,2.7599,2.7583,2.7576,2.7573,2.761,2.761,2.761,2.761,0,0,2.7659,2.7654,2.7651,2.7648,2.7642,2.7635,2.7624,2.7615,2.7609,2.7603,2.7593,2.7578,2.7583,2.7576,2.7576,2.7568,2.7551,2.7573,2.7573,2.7569,2.7529,2.7526,2.7523,2.7552,2.7552,2.7551,2.753,0,2.7638,2.762,2.7622,2.7605,2.7596,2.7602,2.7592,2.7587,2.7585,2.7577,2.7574,2.7564,2.757,2.7567,2.7558,2.7555,2.7543,2.7556,2.7542,2.7541,2.7544,2.7519,2.7515,2.7495,2.7527,2.7527,2.7526,0,2.7611,2.7606,2.7588,2.7584,2.758,2.7572,2.7564,2.7557,2.7551,2.755,2.7544,2.7545,2.7533,2.7542,2.7525,2.7534,2.7528,2.7525,2.7525,2.7523,2.7533,2.7516,2.7489,2.7486,2.7522,2.7522,2.7523,0,2.7592,2.758,2.7568,2.7565,2.756,2.7554,2.7552,2.7547,2.7541,2.7534,2.753,2.7521,2.7516,2.7508,2.7507,2.7514,2.749,2.7498,2.7488,2.7488,2.7482,2.7482,2.7453,2.7479,2.7479,2.7479,2.7479,0,2.7568,2.7557,2.7559,2.7552,2.7539,2.7541,2.7528,2.7526,2.7522,2.7513,2.7517,2.7508,2.7507,2.7498,2.7497,2.7483,2.748,2.7479,2.7478,2.7478,2.7478,2.7474,2.7475,2.7478,2.7478,2.7478,2.7479,0,2.7545,2.7546,2.7533,2.753,2.7529,2.752,2.7517,2.7509,2.7509,2.7498,2.7495,2.7493,2.7483,2.7481,2.7468,2.7467,2.745,2.7451,2.7453,2.7453,2.7442,2.7443,2.7409,2.7404,2.7433,2.7433,2.7433,0,2.7529,2.7521,2.7518,2.7513,2.7511,2.7503,2.7498,2.75,2.7494,2.7488,2.7481,2.7471,2.7463,2.7446,2.7443,2.7433,2.7434,2.7423,2.7432,2.7432,2.7433,2.7434,2.7433,2.742,2.742,2.742,2.742,0,2.7502,2.7503,2.7497,2.7491,2.7485,2.748,2.7475,2.7471,2.7472,2.7465,2.7456,2.745,2.7438,2.7428,2.7419,2.7414,2.7417,2.7417,2.7414,2.7413,2.7414,2.7414,2.7447,2.7417,2.7418,2.7418,2.7418,2.7418,2.7482,2.7475,2.7472,2.7465,2.7462,2.7457,2.745,2.7449,2.7442,2.7433,2.7434,2.7423,2.7418,2.7406,2.7401,2.7392,2.7395,2.7391,2.739,2.7389,2.7388,2.7416,2.739,2.739,2.739,2.739,2.739,0,2.7454,2.7453,2.7447,2.7441,2.7435,2.7439,2.7434,2.7429,2.742,2.7415,2.7408,2.7397,2.7388,2.7384,2.7374,2.7368,2.7369,2.7365,2.7365,2.7364,2.7385,2.7389,2.7365,2.7365,2.7365,2.7365,2.7365,2.7365,2.744,2.7428,2.7429,2.7416,2.7414,2.7405,2.7402,2.7398,2.7394,2.7382,2.7375,2.7373,2.7369,2.7359,2.735,2.735,2.7346,2.7342,2.7341,2.736,2.7363,2.7365,2.7369,2.7341,2.7341,2.7321,2.7321,2.7321]}]]